Effective Sunday, March 17, 2024, the National Weather Service National Data Buoy Center will discontinue its Dial-A-Buoy Interactive Voice Response system. For more information, see Service Change Notice 24-06 (PDF).

Station HHLO1 - Huron Harbor Light, OH Image indicating link to RSS feed of recent meteorological observations for station HHLO1


Conditions at HHLO1 as of
(12:00 am EST)
0500 GMT on 02/25/2024:
     

Click on the graph icon in the table below to see a time series plot of the last five days of that observation.

5-day plot - Wind Direction Wind Direction (WDIR): SW ( 220 deg true )
5-day plot - Wind Speed Wind Speed (WSPD): 6.0 kts
5-day plot - Wind Gust Wind Gust (GST): 8.9 kts
5-day plot - Atmospheric Pressure Atmospheric Pressure (PRES):30.01 in
5-day plot - Pressure Tendency Pressure Tendency (PTDY):+0.00 in ( Steady )
5-day plot - Air Temperature Air Temperature (ATMP): 23.2 °F
5-day plot - Wind Chill Wind Chill (CHILL): 14.9 °F
5-day plot - Wind Speed at 10 Meters Wind Speed at 10 meters (WSPD10M): 5.8 kts
5-day plot - Wind Speed at 20 Meters Wind Speed at 20 meters (WSPD20M): 7.8 kts
5-day plot -  Wind Speed, Wind Gust and Atmospheric Pressure Combined plot of Wind Speed, Gust, and Air Pressure
Previous observations
TIME
(EST)
5-day plot - Wind Direction
WDIR
 
5-day plot - Wind Speed
WSPD
kts
5-day plot - Wind Gust
GST
kts
5-day plot - Wave Height
WVHT
ft
5-day plot - Dominant Wave Period
DPD
sec
5-day plot - Average Wave Period
APD
sec
5-day plot - Mean Wave Direction
MWD
 
5-day plot - Atmospheric Pressure
PRES
in
5-day plot - Pressure Tendency
PTDY
in
5-day plot - Air Temperature
ATMP
°F
5-day plot - Water Temperature
WTMP
°F
5-day plot - Dew Point
DEWP
°F
5-day plot - Salinity
SAL
psu
5-day plot - Visibility
VIS
nmi
5-day plot - Tide (above MLLW)
TIDE
ft
2024-02-24 11:50 pmSSW 5.1 8.0----30.01- 23.0-----
2024-02-24 11:40 pm S 6.0 8.0----30.00- 23.2-----
2024-02-24 11:30 pmSSW 5.1 8.0----30.01- 23.0-----
2024-02-24 11:20 pmSSW 5.1 7.0----30.01- 23.2-----
2024-02-24 11:10 pmSSW 5.1 8.0----30.01- 23.4-----
2024-02-24 11:00 pmSSW 6.0 8.0----30.01-0.01 23.4-----
2024-02-24 10:50 pm S 5.1 8.0----30.01- 23.4-----
2024-02-24 10:40 pmSSW 5.1 7.0----30.01- 23.5-----
2024-02-24 10:30 pmSSW 5.1 7.0----30.02- 23.5-----
2024-02-24 10:20 pmSSW 6.0 8.9----30.02- 23.7-----
2024-02-24 10:10 pmSSW 6.0 8.9----30.02- 23.7-----
2024-02-24 10:00 pmSSW 6.0 8.0----30.02+0.00 23.5-----
2024-02-24 09:50 pmSSW 7.0 8.0----30.02- 23.7-----
2024-02-24 09:40 pm S 5.1 8.0----30.01- 23.7-----
2024-02-24 09:30 pmSSW 6.0 8.0----30.02- 23.5-----
2024-02-24 09:20 pm S 6.0 8.9----30.01- 23.5-----
2024-02-24 09:10 pmSSW 5.1 8.0----30.02- 23.4-----
2024-02-24 09:00 pm S 6.0 8.9----30.01+0.00 23.5-----
2024-02-24 08:50 pm S 6.0 8.0----30.02- 23.9-----
2024-02-24 08:40 pm S 5.1 7.0----30.02- 24.1-----
2024-02-24 08:30 pm S 5.1 7.0----30.02- 24.1-----
2024-02-24 08:20 pm S 4.1 7.0----30.02- 24.1-----
2024-02-24 08:10 pm S 4.1 6.0----30.02- 24.3-----
2024-02-24 08:00 pm S 4.1 6.0----30.02+0.03 24.6-----
2024-02-24 07:50 pm S 5.1 6.0----30.02- 24.6-----
2024-02-24 07:40 pm S 4.1 5.1----30.02- 24.6-----
2024-02-24 07:30 pmSSW 4.1 6.0----30.02- 24.6-----
2024-02-24 07:20 pmSSW 2.9 5.1----30.02- 24.8-----
2024-02-24 07:10 pmSSW 4.1 5.1----30.02- 24.6-----
2024-02-24 07:00 pmSSW 4.1 4.1----30.02+0.03 24.8-----
2024-02-24 06:50 pm S 2.9 4.1----30.02- 24.8-----
2024-02-24 06:40 pm S 1.9 2.9----30.01- 24.8-----
2024-02-24 06:30 pmSSE 1.0 2.9----30.01- 25.0-----
2024-02-24 06:20 pm- 0.0 1.0----30.00- 25.0-----
2024-02-24 06:10 pm- 0.0 1.0----30.00- 25.3-----
2024-02-24 06:00 pm- 0.0 1.0----30.01+0.04 25.5-----
2024-02-24 05:50 pm- 0.0 1.0----30.00- 26.2-----
2024-02-24 05:40 pm- 0.0 1.9----30.00- 25.9-----
2024-02-24 05:30 pmNNE 1.9 4.1----30.00- 25.5-----
2024-02-24 05:20 pm NE 4.1 5.1----30.00- 25.9-----
2024-02-24 05:10 pmENE 1.9 4.1----30.00- 25.9-----
2024-02-24 05:00 pm NE 4.1 6.0----29.99+0.03 25.5-----
2024-02-24 04:50 pm NE 1.9 4.1----29.99- 25.7-----
2024-02-24 04:40 pm NE 5.1 7.0----29.99- 25.2-----
2024-02-24 04:30 pm NE 4.1 8.9----29.99- 25.2-----
2024-02-24 04:20 pm NE 6.0 8.9----29.99- 25.0-----
2024-02-24 04:10 pmNNE 8.0 9.9----29.99- 24.8-----
2024-02-24 04:00 pmNNE 5.1 9.9----29.99+0.04 24.8-----
2024-02-24 03:50 pm NE 8.0 11.1----29.98- 24.6-----
2024-02-24 03:40 pm NE 8.9 11.1----29.98- 24.4-----
2024-02-24 03:30 pm NE 8.0 12.0----29.98- 24.3-----
2024-02-24 03:20 pm NE 8.9 15.0----29.97- 24.1-----
2024-02-24 03:10 pm NE 11.1 15.0----29.97- 23.7-----
2024-02-24 03:00 pm NE 11.1 15.0----29.97+0.03 23.7-----
2024-02-24 02:50 pm NE 11.1 14.0----29.96- 23.7-----
2024-02-24 02:40 pmNNE 9.9 15.9----29.96- 23.5-----
2024-02-24 02:30 pm NE 11.1 14.0----29.95- 23.2-----
2024-02-24 02:20 pmNNE 13.0 15.9----29.96- 23.5-----
2024-02-24 02:10 pmNNE 12.0 15.9----29.96- 23.2-----
2024-02-24 02:00 pmNNE 13.0 18.1----29.96+0.04 23.2-----
2024-02-24 01:50 pmNNE 14.0 18.1----29.96- 23.0-----
2024-02-24 01:40 pmNNE 14.0 17.1----29.96- 23.0-----
2024-02-24 01:30 pmNNE 15.9 17.1----29.96- 23.0-----
2024-02-24 01:20 pmNNE 11.1 15.9----29.96- 22.8-----
2024-02-24 01:10 pm NE 14.0 18.1----29.95- 22.6-----
2024-02-24 01:00 pm NE 11.1 18.1----29.95+0.06 22.5-----
2024-02-24 12:50 pmNNE 14.0 18.1----29.95- 22.3-----
2024-02-24 12:40 pm NE 15.9 20.0----29.95- 22.5-----
2024-02-24 12:30 pmNNE 17.1 20.0----29.94- 22.3-----
2024-02-24 12:20 pmNNE 15.9 21.0----29.94- 22.1-----
2024-02-24 12:10 pmNNE 15.9 20.0----29.94- 22.3-----
2024-02-24 12:00 pm NE 18.1 21.0----29.94+0.07 22.3-----
2024-02-24 11:50 am NE 18.1 20.0----29.93- 22.1-----
2024-02-24 11:40 am NE 17.1 22.0----29.93- 22.1-----
2024-02-24 11:30 amNNE 17.1 22.0----29.94- 22.6-----
2024-02-24 11:20 am NE 18.1 24.1----29.93- 21.9-----
2024-02-24 11:10 amNNE 20.0 22.9----29.93- 22.1-----
2024-02-24 11:00 amNNE 17.1 22.9----29.92+0.07 21.9-----
2024-02-24 10:50 amNNE 18.1 24.1----29.92- 21.7-----
2024-02-24 10:40 am NE 19.0 24.1----29.92- 21.7-----
2024-02-24 10:30 am NE 21.0 24.1----29.91- 21.9-----
2024-02-24 10:20 amNNE 21.0 25.1----29.90- 21.6-----
2024-02-24 10:10 am NE 22.0 26.0----29.90- 21.6-----
2024-02-24 10:00 amNNE 20.0 27.0----29.89+0.08 21.9-----
2024-02-24 09:50 amNNE 22.0 26.0----29.90- 22.1-----
2024-02-24 09:40 amNNE 22.9 28.0----29.89- 22.3-----
2024-02-24 09:30 amNNE 21.0 26.0----29.89- 22.6-----
2024-02-24 09:20 amNNE 22.0 26.0----29.88- 22.6-----
2024-02-24 09:10 amNNE 22.0 27.0----29.87- 22.5-----
2024-02-24 09:00 am NE 22.9 28.9----29.87+0.09 22.8-----
2024-02-24 08:50 amNNE 21.0 28.9----29.87- 22.6-----
2024-02-24 08:40 amNNE 21.0 26.0----29.87- 23.0-----
2024-02-24 08:30 amNNE 22.9 26.0----29.86- 23.2-----
2024-02-24 08:20 amNNE 24.1 28.0----29.85- 22.6-----
2024-02-24 08:10 am NE 22.0 27.0----29.85- 22.8-----
2024-02-24 08:00 amNNE 22.0 27.0----29.85+0.08 23.0-----
2024-02-24 07:50 amNNE 24.1 28.0----29.84- 23.0-----
2024-02-24 07:40 amNNE 21.0 27.0----29.83- 23.4-----
2024-02-24 07:30 amNNE 22.0 25.1----29.83- 23.5-----
2024-02-24 07:20 amNNE 22.9 27.0----29.82- 23.4-----
2024-02-24 07:10 amNNE 22.0 27.0----29.81- 24.1-----
2024-02-24 07:00 amNNE 20.0 26.0----29.81+0.06 23.7-----
2024-02-24 06:50 amNNE 21.0 29.9----29.81- 23.7-----
2024-02-24 06:40 amNNE 25.1 29.9----29.80- 23.7-----
2024-02-24 06:30 amNNE 22.0 26.0----29.80- 24.1-----
2024-02-24 06:20 amNNE 22.0 27.0----29.80- 23.9-----
2024-02-24 06:10 amNNE 24.1 27.0----29.79- 23.9-----
2024-02-24 06:00 am NE 22.9 27.0----29.78+0.05 24.3-----
2024-02-24 05:50 amNNE 21.0 26.0----29.78- 24.3-----
2024-02-24 05:40 amNNE 20.0 28.0----29.78- 24.3-----
2024-02-24 05:30 amNNE 21.0 29.9----29.77- 24.1-----
2024-02-24 05:20 amNNE 22.9 27.0----29.77- 23.4-----
2024-02-24 05:10 amNNE 20.0 27.0----29.77- 23.7-----
2024-02-24 05:00 amNNE 22.0 28.0----29.77+0.04 23.7-----
2024-02-24 04:50 amNNE 22.0 28.0----29.77- 23.9-----
2024-02-24 04:40 amNNE 21.0 26.0----29.77- 24.6-----
2024-02-24 04:30 am NE 20.0 24.1----29.76- 24.8-----
2024-02-24 04:20 amNNE 21.0 26.0----29.76- 24.3-----
2024-02-24 04:10 amNNE 21.0 27.0----29.76- 24.6-----
2024-02-24 04:00 amNNE 22.0 25.1----29.75+0.04 24.8-----
2024-02-24 03:50 am NE 20.0 27.0----29.75- 25.0-----
2024-02-24 03:40 amNNE 22.9 29.9----29.75- 25.2-----
2024-02-24 03:30 am NE 22.0 28.0----29.73- 25.2-----
2024-02-24 03:20 am NE 21.0 27.0----29.73- 25.5-----
2024-02-24 03:10 amNNE 25.1 28.9----29.74- 25.7-----
2024-02-24 03:00 am NE 22.9 27.0----29.73+0.00 26.1-----
2024-02-24 02:50 am NE 22.0 26.0----29.73- 26.2-----
2024-02-24 02:40 am NE 22.0 27.0----29.72- 26.8-----
2024-02-24 02:30 am NE 20.0 25.1----29.73- 26.6-----
2024-02-24 02:20 am NE 22.9 26.0----29.72- 26.8-----
2024-02-24 02:10 am NE 22.0 26.0----29.72- 27.0-----
2024-02-24 02:00 am NE 21.0 27.0----29.73+0.02 27.5-----
2024-02-24 01:50 am NE 20.0 24.1----29.73- 27.7-----
2024-02-24 01:40 am NE 20.0 22.0----29.72- 27.9-----
2024-02-24 01:30 am NE 20.0 24.1----29.72- 27.7-----
2024-02-24 01:20 am NE 21.0 22.9----29.72- 28.2-----
2024-02-24 01:10 am NE 21.0 22.9----29.71- 28.4-----
2024-02-24 01:00 am NE 17.1 21.0----29.71+0.02 28.8-----
2024-02-24 12:50 am NE 18.1 24.1----29.72- 28.8-----